Location: K�ln
(50.9455°N, 6.9544°E)
Time: 17:51:50
(UTC+01:00)

ISS - Visible Passes

Search period start: 21 February 2018 00:00
Search period end: 03 March 2018 00:00
Orbit: 403 x 407 km, 51.6° (Epoch: 22 February)

Date Brightness Start Highest point End Pass type
(mag) Time Alt. Az. Time Alt. Az. Time Alt. Az.
26 Feb -0.3 06:26:49 10° SE 06:26:56 10° SE 06:27:03 10° SE visible
28 Feb -1.3 06:16:07 10° S 06:18:31 19° SE 06:20:55 10° E visible
01 Mar -0.9 05:25:07 10° SSE 05:26:28 12° SE 05:27:49 10° ESE visible
02 Mar -2.3 06:07:10 10° SW 06:10:09 33° SSE 06:13:09 10° E visible
